Погода в Льянесе

Испания     43°25′11″N   4°45′17″W
темп.,
°C
ветер,
м/с
пор.,
м/с
влажн.,
%
обл.,
%
осадки,
мм/ч
давл.,
гПа
погр.,
м
6 марта, сб
сб601:00+10в6681100 0.3 1025665
04:00+10всв667998 0.3 1024715
07:00+10всв668099 0.6 1025677
10:00+10всв6675100 0.3 1026743
13:00+10всв6776100 0.3 1025740
16:00+9всв557347 0.0 1023729
19:00+9всв557462 0.0 1023692
22:00+9всв5576100 0.1 1025662
7 марта, вс
вс701:00+9всв4474100 0.1 1025661
04:00+9всв5575100 0.0 1023706
07:00+9всв5573100 0.1 1023729
10:00+9всв4573100 0.1 1023731
13:00+9всв4473100 0.1 1022713
16:00+9всв4470100 0.1 1021729
19:00+9всв2264100 0.1 1021777
22:00+9вюв1162100 0.0 1022714
8 марта, пн
пн801:00+8ююз216799 0.0 1022396
04:00+8юз326867 0.1 1021391
07:00+7з227177 0.4 1021485
10:00+8зюз336973 0.1 1022443
13:00+9зсз557161 0.1 1022594
16:00+9зсз678598 0.6 1021529
19:00+10ссз568196 1.6 1022675
22:00+10ссв568190 0.8 1024659
9 марта, вт
вт901:00+10ссв557889 1.5 1024639
04:00+9ссв4476100 0.4 1024615
07:00+9с3371100 0.8 1024612
10:00+9ссв2267100 0.1 1025657
13:00+9ссв226577 0.1 1025736
16:00+9св216465 0.0 1023636
19:00+9всв226536 0.0 1024449
22:00+9вюв326956 0.0 1026416
10 марта, ср
ср1001:00+9вюв237177 0.0 1025266
04:00+9юв2264100 0.0 1024183
07:00+9юв115499 0.0 1024144
10:00+11св114742 0.0 1024116
13:00+12св114369 0.0 1024113
16:00+13всв224741 0.0 1022108
19:00+13вюв335869 0.0 102237
22:00+13вюв0171100 0.0 102423